Tracking 25372 objects as of 23-Jan-2022
HD Live streaming from Space Station
objects crossing your sky now

STARLINK-2053

Track STARLINK-2053 now!
10-day predictions
STARLINK-2053 is classified as:


NORAD ID: 47663
Int'l Code: 2021-012AV
Perigee: 553.1 km
Apogee: 555.6 km
Inclination: 53.1 °
Period: 95.6 minutes
Semi major axis: 6925 km
RCS: Unknown
Launch date: February 16, 2021
Source: United States (US)
Launch site: AIR FORCE EASTERN TEST RANGE (AFETR)
aabbcc
Your satellite tracking list
Your tracking list is empty




NASA's NSSDC Master Catalog

Two Line Element Set (TLE):
1 47663U 21012AV  22023.16667824  .00013786  00000-0  94248-3 0  9996
2 47663  53.0550 254.6648 0001849  63.5225 109.3614 15.06404518 53800
Source of the keplerian elements: AFSPC